{"data":{"norad_id":58785,"intl_designator":"2024-011W","name":"STARLINK-31034","alt_names":[],"object_type":"PAYLOAD","status":"ACTIVE","operator":null,"country":"US","launch_date":"2024-01-14","launch_site_code":"AFWTR","launch_vehicle":null,"mission":null,"orbit_class":"UNKNOWN","rcs_meters":null,"size_class":null,"mass_kg":null,"dimensions":null,"purposes":["comms"],"wikipedia_slug":null,"has_3d_model":false,"image_url":null,"decayed_at":null,"tle_current":{"epoch":"2026-05-24T18:54:40.399776Z","epoch_age_seconds":87308,"freshness":"FRESH","line1":"1 58785U 24011W   26144.78796759  .00001088  00000+0  43353-4 0  9994","line2":"2 58785  53.1617 277.0010 0001135  81.9618 278.1513 15.34390897133393","mean_motion":15.34390897,"eccentricity":0.0001135,"inclination_deg":53.1617,"raan_deg":277.001,"arg_perigee_deg":81.9618,"mean_anomaly_deg":278.1513,"bstar":4.3353e-5,"rev_number":13339,"period_min":93.848314846983,"perigee_km":461.9538579371,"apogee_km":463.50673481338,"semimajor_km":6840.8672963752,"source":"CELESTRAK","updated_at":"2026-05-25T13:38:18.747893Z"}}}